This is the latest recevied weather packets stored in our database for station/object IK2YOU-3. If no packets are shown the sender has not sent any weather packets the latest 10 day(s).
| Time | Temp. | Humidity | Pressure | Rain* | Wind** | Luminosity | Snow |
|---|---|---|---|---|---|---|---|
| 1777299378 | 27.78° C | 38% | 1012.6 hPa | 0 mm | - | 372 W/m² | - |
| 1777298648 | 27.22° C | 39% | 1012.8 hPa | 0 mm | - | 368 W/m² | - |
| 1777298048 | 27.78° C | 39% | 1013 hPa | 0 mm | - | 382 W/m² | - |
| 1777297448 | 27.22° C | 39% | 1013.2 hPa | 0 mm | - | 397 W/m² | - |
| 1777296848 | 27.22° C | 38% | 1013.3 hPa | 0 mm | - | 362 W/m² | - |
| 1777296249 | 27.22° C | 39% | 1013.4 hPa | 0 mm | - | 436 W/m² | - |
| 1777295778 | 27.22° C | 43% | 1013.6 hPa | 0 mm | - | 445 W/m² | - |
| 1777295048 | 27.78° C | 41% | 1013.7 hPa | 0 mm | - | 465 W/m² | - |
| 1777294448 | 27.22° C | 44% | 1013.9 hPa | 0 mm | - | 502 W/m² | - |
| 1777293848 | 27.22° C | 46% | 1014 hPa | 0 mm | - | 490 W/m² | - |
| 1777293248 | 26.67° C | 46% | 1014.1 hPa | 0 mm | - | 485 W/m² | - |
| 1777292648 | 26.67° C | 46% | 1014.2 hPa | 0 mm | - | 511 W/m² | - |
| 1777292179 | 26.67° C | 47% | 1014.3 hPa | 0 mm | - | 453 W/m² | - |
| 1777291575 | 26.67° C | 49% | 1014.4 hPa | 0 mm | - | 505 W/m² | - |
| 1777290976 | 25.56° C | 49% | 1014.6 hPa | 0 mm | - | 539 W/m² | - |
| 1777290248 | 25.56° C | 49% | 1014.7 hPa | 0 mm | - | 524 W/m² | - |
| 1777289647 | 25.56° C | 49% | 1014.8 hPa | 0 mm | - | 584 W/m² | - |
| 1777289174 | 25° C | 53% | 1014.9 hPa | 0 mm | - | 583 W/m² | - |
| 1777288446 | 25° C | 53% | 1015 hPa | 0 mm | - | 499 W/m² | - |
| 1777287847 | 25° C | 53% | 1015.2 hPa | 0 mm | - | 543 W/m² | - |
| 1777287247 | 24.44° C | 53% | 1015.3 hPa | 0 mm | - | 530 W/m² | - |
| 1777286648 | 25° C | 54% | 1015.5 hPa | 0 mm | - | 485 W/m² | - |
| 1777286048 | 24.44° C | 54% | 1015.6 hPa | 0 mm | - | 554 W/m² | - |
| 1777285447 | 23.89° C | 56% | 1015.6 hPa | 0 mm | - | 542 W/m² | - |
| 1777284847 | 24.44° C | 57% | 1015.6 hPa | 0 mm | - | 467 W/m² | - |
* Rain latest hour (hover to see other rain measurements)
** Current wind speed in m/s (hover to see current wind gust speed)